QPF
0.00 0.00 0.00 0.00 0.00 0.00 0.00 0.00 0.00 0.00 0.00 0.00 0.00 0.00 0.00 0.00 0.00 0.00 0.00 0.00 0.00 0.00 0.00 0.00 0.00 0.01 0.01 0.02 0.02 0.03 0.04 0.05 0.05 0.05 0.04 0.04 0.04 0.04 0.04 0.03 0.03 0.04 0.04
0.00 0.00 0.00 0.00 0.00 0.00 0.00 0.00 0.00 0.00 0.00 0.00 0.00 0.00 0.00 0.00 0.00 0.00 0.00 0.00 0.00 0.00 0.00 0.00 0.00 0.00 0.00 0.01 0.01 0.01 0.02 0.03 0.03 0.03 0.04 0.04 0.04 0.04 0.04 0.04 0.04 0.05 0.05
0.00 0.00 0.00 0.00 0.00 0.00 0.00 0.00 0.00 0.00 0.00 0.00 0.00 0.00 0.00 0.00 0.00 0.00 0.00 0.00 0.00 0.00 0.00 0.00 0.00 0.00 0.00 0.00 0.01 0.01 0.01 0.01 0.02 0.02 0.02 0.03 0.03 0.03 0.04 0.04 0.05 0.05 0.06
0.00 0.00 0.00 0.00 0.00 0.00 0.00 0.00 0.00 0.00 0.00 0.00 0.00 0.00 0.00 0.00 0.00 0.00 0.00 0.00 0.00 0.00 0.00 0.00 0.00 0.00 0.00 0.00 0.00 0.01 0.01 0.01 0.01 0.01 0.01 0.01 0.02 0.02 0.02 0.03 0.03 0.04 0.05
0.00 0.00 0.00 0.00 0.00 0.00 0.00 0.00 0.00 0.00 0.00 0.00 0.00 0.00 0.00 0.00 0.00 0.00 0.00 0.00 0.00 0.00 0.00 0.00 0.00 0.00 0.00 0.00 0.00 0.00 0.00 0.01 0.01 0.01 0.01 0.01 0.01 0.01 0.01 0.02 0.02 0.03 0.03
0.00 0.00 0.00 0.00 0.00 0.00 0.00 0.00 0.00 0.00 0.00 0.00 0.00 0.00 0.00 0.00 0.00 0.00 0.00 0.00 0.00 0.00 0.00 0.00 0.00 0.00 0.00 0.00 0.00 0.00 0.00 0.01 0.01 0.01 0.01 0.01 0.01 0.01 0.01 0.01 0.01 0.01 0.02
0.00 0.00 0.00 0.00 0.00 0.01 0.01 0.00 0.00 0.00 0.00 0.00 0.00 0.00 0.00 0.00 0.00 0.00 0.00 0.00 0.00 0.00 0.00 0.00 0.00 0.00 0.00 0.00 0.00 0.00 0.00 0.00 0.00 0.00 0.00 0.00 0.01 0.01 0.01 0.01 0.01 0.01 0.01
0.01 0.01 0.01 0.01 0.01 0.01 0.01 0.00 0.00 0.00 0.00 0.00 0.00 0.00 0.00 0.00 0.00 0.00 0.00 0.00 0.00 0.00 0.00 0.00 0.00 0.00 0.00 0.00 0.00 0.00 0.00 0.00 0.00 0.00 0.00 0.00 0.00 0.01 0.01 0.01 0.01 0.01 0.01
0.01 0.01 0.01 0.01 0.01 0.01 0.01 0.01 0.01 0.01 0.01 0.00 0.00 0.00 0.00 0.00 0.00 0.00 0.00 0.00 0.00 0.00 0.00 0.00 0.00 0.00 0.00 0.00 0.00 0.00 0.00 0.00 0.00 0.00 0.00 0.00 0.00 0.00 0.01 0.01 0.01 0.01 0.01
0.01 0.01 0.01 0.01 0.01 0.01 0.01 0.01 0.01 0.01 0.01 0.01 0.00 0.00 0.00 0.00 0.00 0.00 0.00 0.00 0.00 0.00 0.00 0.00 0.00 0.00 0.00 0.00 0.00 0.00 0.00 0.00 0.00 0.00 0.00 0.00 0.00 0.00 0.00 0.01 0.01 0.01 0.01
0.01 0.01 0.01 0.02 0.01 0.01 0.01 0.01 0.01 0.01 0.01 0.01 0.00 0.00 0.00 0.00 0.00 0.00 0.00 0.00 0.00 0.00 0.00 0.00 0.00 0.00 0.00 0.00 0.00 0.00 0.00 0.00 0.00 0.00 0.00 0.00 0.00 0.00 0.00 0.01 0.01 0.01 0.01
0.01 0.01 0.01 0.01 0.01 0.01 0.01 0.01 0.01 0.01 0.01 0.01 0.01 0.01 0.00 0.00 0.00 0.00 0.00 0.00 0.00 0.00 0.00 0.00 0.00 0.00 0.00 0.00 0.00 0.00 0.00 0.00 0.00 0.00 0.00 0.00 0.00 0.00 0.00 0.00 0.01 0.01 0.01
0.01 0.01 0.01 0.01 0.01 0.01 0.01 0.01 0.01 0.01 0.01 0.01 0.01 0.01 0.01 0.00 0.00 0.00 0.00 0.00 0.00 0.00 0.00 0.00 0.00 0.00 0.00 0.00 0.00 0.00 0.00 0.00 0.00 0.00 0.00 0.00 0.00 0.00 0.00 0.00 0.01 0.01 0.01
0.00 0.00 0.00 0.01 0.01 0.00 0.01 0.01 0.01 0.01 0.01 0.01 0.01 0.00 0.00 0.00 0.00 0.00 0.00 0.00 0.00 0.00 0.00 0.00 0.00 0.00 0.00 0.00 0.00 0.00 0.00 0.00 0.00 0.00 0.00 0.00 0.00 0.00 0.00 0.00 0.01 0.01 0.01
0.00 0.00 0.00 0.00 0.00 0.00 0.01 0.01 0.01 0.01 0.00 0.00 0.00 0.00 0.00 0.00 0.00 0.00 0.00 0.00 0.00 0.00 0.00 0.00 0.00 0.00 0.00 0.00 0.00 0.00 0.00 0.00 0.00 0.00 0.00 0.00 0.00 0.00 0.00 0.00 0.01 0.01 0.01
0.00 0.00 0.00 0.00 0.00 0.00 0.01 0.01 0.01 0.00 0.00 0.00 0.00 0.00 0.00 0.00 0.00 0.00 0.00 0.00 0.00 0.00 0.00 0.00 0.00 0.00 0.00 0.00 0.00 0.00 0.00 0.00 0.00 0.00 0.00 0.00 0.00 0.00 0.00 0.00 0.01 0.01 0.01
0.00 0.00 0.00 0.00 0.00 0.00 0.00 0.00 0.00 0.00 0.00 0.00 0.00 0.00 0.00 0.00 0.00 0.00 0.00 0.00 0.00 0.00 0.00 0.00 0.00 0.00 0.00 0.00 0.00 0.00 0.00 0.00 0.00 0.00 0.00 0.00 0.00 0.00 0.00 0.00 0.00 0.01 0.01
0.00 0.00 0.00 0.00 0.00 0.00 0.00 0.00 0.00 0.00 0.00 0.00 0.00 0.00 0.00 0.00 0.00 0.00 0.00 0.00 0.00 0.00 0.00 0.00 0.00 0.00 0.00 0.00 0.00 0.00 0.00 0.00 0.00 0.00 0.00 0.00 0.00 0.00 0.00 0.00 0.00 0.00 0.01
0.00 0.00 0.00 0.00 0.00 0.00 0.00 0.00 0.00 0.00 0.00 0.00 0.00 0.00 0.00 0.00 0.00 0.00 0.00 0.00 0.00 0.00 0.00 0.00 0.00 0.00 0.00 0.00 0.00 0.00 0.00 0.00 0.00 0.00 0.00 0.00 0.00 0.00 0.00 0.00 0.00 0.00 0.00
0.00 0.00 0.00 0.00 0.00 0.00 0.00 0.00 0.00 0.00 0.00 0.00 0.00 0.00 0.00 0.00 0.00 0.00 0.00 0.00 0.00 0.00 0.00 0.00 0.00 0.00 0.00 0.00 0.00 0.00 0.00 0.00 0.00 0.00 0.00 0.00 0.00 0.00 0.00 0.00 0.00 0.00 0.01
0.00 0.00 0.00 0.00 0.00 0.00 0.00 0.00 0.00 0.00 0.00 0.00 0.00 0.00 0.00 0.00 0.00 0.00 0.00 0.00 0.00 0.00 0.00 0.00 0.00 0.00 0.00 0.00 0.00 0.00 0.00 0.00 0.00 0.00 0.00 0.00 0.00 0.00 0.00 0.00 0.00 0.00 0.01
0.00 0.00 0.00 0.00 0.00 0.00 0.01 0.01 0.00 0.00 0.00 0.00 0.00 0.00 0.00 0.00 0.00 0.00 0.00 0.00 0.00 0.00 0.00 0.00 0.00 0.00 0.00 0.00 0.00 0.00 0.00 0.00 0.00 0.00 0.00 0.00 0.00 0.00 0.00 0.00 0.00 0.00 0.01
0.00 0.00 0.00 0.00 0.00 0.00 0.01 0.00 0.00 0.00 0.00 0.00 0.00 0.00 0.00 0.00 0.00 0.00 0.00 0.00 0.00 0.00 0.00 0.00 0.00 0.00 0.00 0.00 0.01 0.01 0.01 0.01 0.00 0.00 0.00 0.00 0.00 0.00 0.00 0.00 0.00 0.00 0.01
0.00 0.00 0.00 0.00 0.00 0.00 0.01 0.00 0.00 0.00 0.00 0.00 0.00 0.00 0.00 0.00 0.00 0.00 0.00 0.00 0.00 0.00 0.00 0.00 0.00 0.00 0.00 0.00 0.01 0.01 0.01 0.00 0.00 0.00 0.00 0.00 0.00 0.00 0.00 0.00 0.00 0.00 0.01
0.00 0.00 0.00 0.00 0.00 0.00 0.00 0.00 0.00 0.00 0.00 0.00 0.00 0.00 0.00 0.00 0.00 0.00 0.00 0.00 0.00 0.00 0.00 0.00 0.00 0.00 0.00 0.00 0.00 0.00 0.00 0.00 0.00 0.00 0.00 0.00 0.00 0.00 0.00 0.00 0.00 0.00 0.01
0.00 0.00 0.00 0.00 0.00 0.00 0.00 0.00 0.00 0.00 0.00 0.00 0.00 0.00 0.00 0.00 0.00 0.00 0.00 0.00 0.00 0.00 0.00 0.00 0.00 0.00 0.00 0.00 0.00 0.00 0.00 0.01 0.01 0.00 0.00 0.00 0.00 0.00 0.00 0.00 0.00 0.00 0.00
MSLP
1026.22 1026.43 1026.59 1026.71 1026.79 1026.85 1026.91 1026.96 1027.01 1027.05 1027.07 1027.06 1027.02 1026.96 1026.89 1026.84 1026.81 1026.80 1026.82 1026.85 1026.85 1026.81 1026.70 1026.53 1026.29 1026.00 1025.70 1025.42 1025.16 1024.95 1024.76 1024.59 1024.43 1024.23 1023.99 1023.72 1023.40 1023.07 1022.73 1022.39 1022.07 1021.76 1021.46
1026.10 1026.34 1026.54 1026.70 1026.82 1026.91 1026.99 1027.06 1027.12 1027.15 1027.16 1027.15 1027.10 1027.04 1026.98 1026.93 1026.91 1026.92 1026.94 1026.98 1026.99 1026.97 1026.90 1026.76 1026.57 1026.34 1026.08 1025.83 1025.60 1025.39 1025.20 1025.02 1024.82 1024.60 1024.34 1024.04 1023.71 1023.35 1022.98 1022.61 1022.24 1021.88 1021.52
1025.94 1026.22 1026.46 1026.68 1026.86 1027.00 1027.12 1027.21 1027.27 1027.30 1027.30 1027.27 1027.22 1027.15 1027.09 1027.05 1027.03 1027.04 1027.08 1027.14 1027.18 1027.20 1027.17 1027.10 1026.97 1026.80 1026.60 1026.39 1026.19 1025.98 1025.78 1025.58 1025.35 1025.10 1024.81 1024.49 1024.14 1023.75 1023.36 1022.95 1022.55 1022.13 1021.71
1025.76 1026.06 1026.36 1026.63 1026.88 1027.08 1027.24 1027.36 1027.43 1027.46 1027.44 1027.40 1027.33 1027.26 1027.20 1027.16 1027.15 1027.19 1027.25 1027.33 1027.42 1027.49 1027.52 1027.51 1027.46 1027.36 1027.22 1027.05 1026.87 1026.67 1026.45 1026.22 1025.96 1025.67 1025.35 1025.00 1024.62 1024.22 1023.80 1023.37 1022.93 1022.47 1021.99
1025.54 1025.86 1026.19 1026.53 1026.83 1027.09 1027.30 1027.45 1027.53 1027.56 1027.54 1027.48 1027.41 1027.33 1027.28 1027.25 1027.27 1027.32 1027.42 1027.55 1027.68 1027.81 1027.92 1027.99 1028.00 1027.97 1027.88 1027.75 1027.58 1027.37 1027.14 1026.87 1026.56 1026.24 1025.88 1025.51 1025.11 1024.69 1024.25 1023.80 1023.32 1022.83 1022.32
1025.23 1025.56 1025.93 1026.30 1026.66 1026.97 1027.22 1027.39 1027.50 1027.53 1027.51 1027.46 1027.39 1027.33 1027.29 1027.29 1027.34 1027.43 1027.58 1027.75 1027.95 1028.14 1028.32 1028.46 1028.55 1028.58 1028.54 1028.44 1028.27 1028.05 1027.78 1027.47 1027.13 1026.76 1026.37 1025.96 1025.55 1025.11 1024.66 1024.19 1023.70 1023.18 1022.64
1024.82 1025.14 1025.52 1025.92 1026.31 1026.65 1026.94 1027.15 1027.27 1027.33 1027.33 1027.30 1027.25 1027.22 1027.22 1027.25 1027.34 1027.49 1027.68 1027.91 1028.17 1028.44 1028.68 1028.89 1029.05 1029.14 1029.14 1029.06 1028.90 1028.66 1028.35 1028.00 1027.62 1027.21 1026.79 1026.36 1025.92 1025.47 1025.01 1024.53 1024.02 1023.49 1022.94
1024.27 1024.57 1024.95 1025.35 1025.76 1026.13 1026.44 1026.68 1026.85 1026.94 1026.98 1026.99 1026.99 1027.01 1027.05 1027.14 1027.28 1027.48 1027.73 1028.02 1028.33 1028.66 1028.97 1029.24 1029.46 1029.60 1029.64 1029.59 1029.43 1029.18 1028.85 1028.46 1028.04 1027.59 1027.15 1026.70 1026.25 1025.79 1025.32 1024.83 1024.31 1023.78 1023.22
1023.56 1023.86 1024.22 1024.62 1025.03 1025.43 1025.77 1026.05 1026.26 1026.40 1026.51 1026.58 1026.65 1026.73 1026.83 1026.98 1027.18 1027.42 1027.71 1028.05 1028.41 1028.79 1029.15 1029.49 1029.77 1029.96 1030.04 1030.01 1029.87 1029.61 1029.27 1028.86 1028.41 1027.95 1027.48 1027.01 1026.55 1026.09 1025.62 1025.12 1024.60 1024.05 1023.49
1022.74 1023.03 1023.38 1023.78 1024.20 1024.61 1024.99 1025.31 1025.58 1025.80 1025.98 1026.14 1026.28 1026.44 1026.62 1026.82 1027.06 1027.34 1027.66 1028.03 1028.42 1028.84 1029.25 1029.64 1029.97 1030.21 1030.34 1030.34 1030.22 1029.98 1029.64 1029.23 1028.77 1028.29 1027.82 1027.35 1026.88 1026.42 1025.94 1025.44 1024.91 1024.36 1023.78
1021.85 1022.15 1022.51 1022.92 1023.35 1023.79 1024.21 1024.59 1024.93 1025.23 1025.50 1025.75 1025.99 1026.22 1026.46 1026.71 1026.98 1027.28 1027.62 1027.99 1028.40 1028.84 1029.28 1029.71 1030.08 1030.37 1030.55 1030.60 1030.51 1030.30 1029.98 1029.57 1029.12 1028.65 1028.17 1027.71 1027.25 1026.79 1026.32 1025.82 1025.28 1024.72 1024.13
1020.94 1021.27 1021.67 1022.11 1022.58 1023.05 1023.52 1023.97 1024.39 1024.78 1025.14 1025.48 1025.81 1026.11 1026.41 1026.69 1026.99 1027.29 1027.62 1027.99 1028.39 1028.83 1029.29 1029.74 1030.15 1030.48 1030.71 1030.80 1030.75 1030.57 1030.27 1029.89 1029.46 1029.01 1028.55 1028.10 1027.65 1027.21 1026.74 1026.25 1025.71 1025.15 1024.55
1020.07 1020.47 1020.92 1021.41 1021.93 1022.45 1022.98 1023.50 1024.00 1024.48 1024.94 1025.37 1025.77 1026.15 1026.49 1026.80 1027.10 1027.40 1027.71 1028.05 1028.44 1028.86 1029.32 1029.78 1030.20 1030.56 1030.82 1030.95 1030.94 1030.79 1030.53 1030.18 1029.77 1029.34 1028.91 1028.48 1028.06 1027.64 1027.19 1026.71 1026.19 1025.63 1025.02
1019.27 1019.76 1020.29 1020.85 1021.42 1022.01 1022.60 1023.19 1023.77 1024.33 1024.88 1025.39 1025.87 1026.31 1026.69 1027.03 1027.33 1027.61 1027.90 1028.21 1028.56 1028.96 1029.39 1029.84 1030.26 1030.63 1030.90 1031.05 1031.07 1030.95 1030.71 1030.39 1030.02 1029.62 1029.22 1028.82 1028.44 1028.04 1027.63 1027.18 1026.68 1026.13 1025.53
1018.57 1019.16 1019.78 1020.41 1021.06 1021.70 1022.35 1023.00 1023.65 1024.29 1024.91 1025.50 1026.05 1026.54 1026.96 1027.33 1027.64 1027.91 1028.18 1028.46 1028.77 1029.13 1029.52 1029.94 1030.34 1030.69 1030.95 1031.10 1031.13 1031.02 1030.81 1030.52 1030.17 1029.81 1029.44 1029.09 1028.74 1028.39 1028.02 1027.60 1027.14 1026.61 1026.03
1017.97 1018.67 1019.37 1020.07 1020.78 1021.48 1022.18 1022.88 1023.58 1024.28 1024.96 1025.62 1026.23 1026.78 1027.25 1027.65 1027.98 1028.26 1028.51 1028.76 1029.04 1029.36 1029.71 1030.07 1030.43 1030.74 1030.97 1031.10 1031.11 1031.01 1030.81 1030.54 1030.22 1029.89 1029.57 1029.25 1028.95 1028.64 1028.31 1027.95 1027.52 1027.04 1026.49
1017.49 1018.26 1019.03 1019.79 1020.54 1021.28 1022.01 1022.74 1023.48 1024.22 1024.96 1025.67 1026.34 1026.95 1027.48 1027.93 1028.29 1028.59 1028.85 1029.09 1029.34 1029.61 1029.91 1030.21 1030.51 1030.76 1030.94 1031.03 1031.03 1030.92 1030.72 1030.47 1030.17 1029.88 1029.59 1029.32 1029.06 1028.80 1028.52 1028.20 1027.82 1027.37 1026.86
1017.12 1017.94 1018.76 1019.55 1020.32 1021.07 1021.81 1022.56 1023.32 1024.09 1024.86 1025.62 1026.35 1027.02 1027.61 1028.12 1028.53 1028.87 1029.14 1029.38 1029.61 1029.85 1030.09 1030.33 1030.55 1030.74 1030.87 1030.91 1030.88 1030.75 1030.56 1030.32 1030.06 1029.80 1029.55 1029.31 1029.10 1028.87 1028.63 1028.35 1028.02 1027.62 1027.15
1016.88 1017.71 1018.53 1019.33 1020.09 1020.83 1021.57 1022.31 1023.08 1023.86 1024.67 1025.47 1026.25 1026.98 1027.63 1028.20 1028.67 1029.04 1029.35 1029.59 1029.81 1030.01 1030.20 1030.38 1030.54 1030.67 1030.74 1030.75 1030.68 1030.56 1030.37 1030.15 1029.92 1029.69 1029.48 1029.28 1029.09 1028.90 1028.69 1028.44 1028.14 1027.77 1027.34
1016.75 1017.58 1018.38 1019.15 1019.88 1020.60 1021.31 1022.04 1022.79 1023.59 1024.41 1025.24 1026.06 1026.84 1027.55 1028.17 1028.69 1029.10 1029.43 1029.69 1029.90 1030.07 1030.22 1030.35 1030.45 1030.53 1030.56 1030.54 1030.47 1030.35 1030.18 1029.99 1029.79 1029.60 1029.42 1029.24 1029.08 1028.91 1028.71 1028.48 1028.20 1027.86 1027.45
1016.75 1017.53 1018.29 1019.01 1019.71 1020.39 1021.07 1021.78 1022.52 1023.31 1024.14 1024.99 1025.83 1026.65 1027.39 1028.05 1028.61 1029.05 1029.40 1029.66 1029.85 1030.00 1030.12 1030.21 1030.28 1030.32 1030.33 1030.31 1030.24 1030.14 1030.01 1029.86 1029.70 1029.54 1029.39 1029.23 1029.08 1028.92 1028.73 1028.50 1028.23 1027.90 1027.52
1016.84 1017.56 1018.26 1018.93 1019.58 1020.22 1020.88 1021.56 1022.29 1023.08 1023.91 1024.76 1025.62 1026.44 1027.20 1027.87 1028.44 1028.89 1029.24 1029.50 1029.68 1029.81 1029.90 1029.97 1030.02 1030.06 1030.07 1030.06 1030.02 1029.96 1029.87 1029.77 1029.65 1029.52 1029.39 1029.26 1029.11 1028.94 1028.75 1028.52 1028.25 1027.93 1027.56
1016.96 1017.62 1018.27 1018.89 1019.50 1020.11 1020.75 1021.42 1022.14 1022.92 1023.75 1024.60 1025.44 1026.26 1027.01 1027.66 1028.21 1028.65 1028.98 1029.22 1029.38 1029.50 1029.58 1029.64 1029.69 1029.73 1029.77 1029.79 1029.80 1029.79 1029.75 1029.70 1029.62 1029.53 1029.42 1029.29 1029.14 1028.97 1028.77 1028.54 1028.27 1027.95 1027.60
1017.07 1017.67 1018.27 1018.85 1019.43 1020.03 1020.66 1021.34 1022.06 1022.84 1023.65 1024.49 1025.31 1026.09 1026.81 1027.43 1027.94 1028.34 1028.63 1028.84 1028.99 1029.09 1029.16 1029.23 1029.30 1029.37 1029.45 1029.52 1029.58 1029.62 1029.64 1029.63 1029.60 1029.53 1029.44 1029.32 1029.17 1028.99 1028.79 1028.56 1028.29 1027.99 1027.66
1017.08 1017.65 1018.21 1018.77 1019.35 1019.95 1020.58 1021.27 1022.00 1022.78 1023.59 1024.40 1025.19 1025.93 1026.59 1027.16 1027.61 1027.96 1028.22 1028.40 1028.52 1028.61 1028.69 1028.78 1028.87 1028.98 1029.10 1029.22 1029.34 1029.43 1029.50 1029.54 1029.54 1029.50 1029.42 1029.31 1029.16 1028.99 1028.79 1028.57 1028.32 1028.04 1027.74
1016.98 1017.51 1018.05 1018.61 1019.19 1019.80 1020.46 1021.16 1021.91 1022.69 1023.49 1024.28 1025.03 1025.72 1026.33 1026.84 1027.24 1027.54 1027.75 1027.90 1028.01 1028.10 1028.19 1028.29 1028.42 1028.57 1028.74 1028.91 1029.07 1029.21 1029.32 1029.39 1029.42 1029.40 1029.34 1029.24 1029.11 1028.95 1028.77 1028.56 1028.34 1028.09 1027.83
Thickness
5663 5662 5661 5659 5659 5657 5656 5655 5654 5652 5651 5650 5648 5647 5646 5644 5642 5640 5638 5635 5633 5631 5629 5627 5624 5622 5620 5617 5614 5611 5609 5605 5602 5599 5595 5592 5589 5586 5583 5580 5578 5575 5573
5663 5661 5660 5659 5658 5656 5655 5653 5652 5650 5649 5647 5646 5644 5642 5641 5639 5636 5634 5632 5628 5626 5623 5620 5618 5615 5613 5610 5607 5604 5600 5597 5593 5590 5586 5583 5580 5577 5574 5571 5569 5567 5565
5662 5661 5659 5658 5656 5654 5652 5651 5649 5647 5646 5644 5643 5641 5639 5637 5635 5632 5630 5627 5623 5620 5616 5613 5610 5607 5604 5601 5598 5595 5591 5588 5584 5580 5577 5573 5570 5567 5564 5562 5559 5558 5556
5661 5659 5658 5657 5654 5652 5651 5649 5647 5646 5644 5642 5640 5638 5636 5633 5631 5628 5625 5621 5617 5613 5609 5605 5602 5599 5595 5592 5589 5585 5582 5578 5574 5570 5566 5563 5559 5556 5554 5552 5550 5548 5546
5659 5658 5657 5655 5653 5651 5649 5646 5645 5643 5642 5639 5636 5634 5632 5629 5626 5622 5618 5614 5610 5606 5602 5597 5593 5589 5585 5582 5578 5574 5571 5567 5563 5559 5555 5552 5549 5546 5544 5541 5539 5538 5536
5659 5657 5655 5653 5651 5649 5646 5644 5642 5639 5636 5634 5631 5630 5628 5624 5620 5616 5611 5606 5601 5597 5593 5589 5584 5580 5575 5570 5567 5563 5559 5556 5552 5548 5544 5541 5537 5535 5532 5530 5529 5527 5525
5658 5656 5654 5652 5649 5647 5645 5642 5638 5635 5632 5629 5627 5626 5623 5618 5614 5608 5604 5599 5593 5588 5583 5579 5574 5569 5564 5559 5554 5551 5547 5543 5539 5536 5532 5529 5526 5523 5521 5519 5517 5515 5514
5658 5655 5653 5651 5647 5645 5642 5638 5635 5632 5628 5624 5623 5620 5617 5613 5606 5600 5595 5590 5585 5579 5574 5568 5563 5558 5553 5548 5542 5538 5534 5530 5527 5523 5520 5517 5514 5512 5509 5507 5505 5503 5502
5657 5655 5652 5649 5646 5643 5640 5636 5632 5629 5625 5619 5616 5614 5610 5607 5601 5594 5587 5582 5576 5570 5564 5558 5552 5546 5541 5535 5530 5525 5521 5517 5514 5511 5507 5505 5502 5500 5497 5495 5493 5490 5488
5656 5654 5651 5648 5645 5641 5638 5634 5629 5625 5622 5616 5609 5605 5602 5599 5593 5589 5581 5573 5566 5560 5554 5547 5541 5534 5528 5523 5517 5512 5508 5505 5501 5498 5495 5492 5489 5486 5484 5481 5478 5475 5473
5655 5652 5649 5646 5642 5639 5635 5631 5625 5621 5617 5613 5606 5599 5593 5588 5583 5579 5575 5567 5559 5550 5542 5536 5529 5523 5517 5511 5505 5500 5496 5492 5488 5485 5482 5478 5475 5472 5469 5466 5463 5459 5455
5654 5651 5647 5643 5640 5636 5632 5627 5622 5617 5612 5607 5601 5595 5590 5584 5578 5572 5566 5560 5551 5541 5532 5525 5518 5511 5505 5499 5493 5487 5483 5479 5476 5472 5468 5465 5461 5457 5454 5450 5446 5441 5436
5652 5649 5644 5640 5636 5632 5627 5622 5616 5610 5605 5599 5594 5587 5581 5576 5569 5563 5557 5550 5541 5533 5523 5514 5506 5499 5493 5487 5481 5475 5471 5467 5463 5459 5455 5450 5446 5442 5437 5432 5427 5422 5416
5652 5647 5642 5637 5632 5626 5621 5615 5609 5603 5597 5590 5584 5578 5571 5564 5557 5552 5546 5539 5532 5525 5518 5509 5497 5488 5481 5475 5468 5463 5459 5454 5449 5444 5440 5435 5430 5426 5420 5414 5408 5402 5395
5647 5642 5637 5631 5625 5619 5613 5607 5601 5593 5587 5580 5573 5567 5560 5552 5545 5538 5533 5527 5523 5520 5514 5501 5489 5478 5470 5463 5456 5451 5446 5441 5435 5430 5425 5420 5415 5409 5403 5396 5389 5381 5374
5641 5635 5629 5623 5617 5611 5604 5597 5590 5583 5576 5569 5562 5556 5548 5541 5533 5525 5519 5513 5508 5504 5500 5489 5478 5467 5458 5451 5444 5439 5434 5428 5423 5416 5410 5405 5399 5392 5384 5377 5369 5361 5352
5634 5628 5622 5615 5608 5601 5595 5588 5580 5572 5566 5558 5550 5544 5537 5529 5521 5514 5507 5500 5493 5487 5483 5474 5463 5454 5446 5439 5433 5427 5421 5416 5410 5403 5396 5389 5382 5374 5366 5357 5349 5340 5330
5626 5620 5614 5606 5599 5591 5585 5579 5570 5562 5556 5548 5540 5533 5525 5517 5510 5502 5495 5487 5480 5472 5466 5459 5451 5442 5434 5428 5421 5415 5409 5403 5397 5389 5381 5373 5365 5357 5348 5338 5329 5319 5309
5615 5609 5604 5597 5589 5582 5574 5568 5560 5552 5545 5537 5530 5522 5514 5506 5498 5490 5482 5475 5467 5458 5450 5443 5437 5430 5423 5416 5410 5404 5397 5390 5383 5376 5367 5359 5350 5340 5330 5321 5310 5299 5290
5605 5599 5593 5587 5579 5572 5564 5556 5549 5541 5532 5524 5517 5510 5502 5495 5486 5478 5470 5462 5453 5445 5437 5430 5424 5418 5412 5405 5398 5393 5387 5379 5372 5364 5353 5343 5335 5324 5314 5304 5294 5283 5273
5593 5586 5580 5572 5566 5559 5552 5545 5537 5529 5521 5511 5503 5496 5488 5481 5473 5465 5457 5449 5441 5433 5425 5418 5413 5407 5400 5392 5385 5378 5372 5366 5360 5351 5340 5329 5321 5312 5299 5288 5276 5266 5256
5577 5571 5565 5560 5554 5547 5540 5533 5526 5517 5509 5500 5491 5482 5474 5466 5458 5450 5443 5435 5429 5421 5414 5407 5401 5394 5386 5378 5370 5361 5355 5351 5347 5340 5327 5317 5305 5294 5283 5272 5261 5251 5242
5563 5557 5551 5546 5541 5534 5528 5520 5512 5505 5497 5488 5479 5471 5461 5453 5445 5437 5429 5422 5414 5407 5401 5395 5388 5380 5372 5364 5356 5348 5339 5330 5323 5316 5308 5304 5293 5281 5269 5257 5247 5237 5228
5549 5544 5538 5533 5528 5521 5514 5507 5498 5491 5483 5475 5467 5459 5450 5441 5433 5425 5417 5409 5402 5394 5388 5381 5374 5366 5357 5348 5340 5332 5323 5315 5307 5298 5288 5285 5281 5270 5257 5246 5235 5225 5215
5535 5530 5524 5519 5514 5507 5500 5493 5485 5477 5468 5460 5453 5445 5437 5429 5420 5412 5405 5397 5389 5382 5374 5366 5359 5351 5343 5334 5325 5317 5308 5300 5296 5288 5274 5264 5262 5257 5250 5238 5225 5214 5204
5521 5515 5509 5504 5500 5494 5487 5479 5472 5464 5455 5447 5438 5430 5423 5416 5408 5401 5393 5386 5378 5370 5361 5353 5344 5336 5328 5320 5310 5301 5292 5283 5276 5271 5261 5248 5242 5234 5234 5230 5215 5204 5195